GW3809 Weather Reports


Display with metric or nautical units.
time (UTC)temp
F
wind
direction
speed
MPH
gust
MPH
rain 1hr
in
rain 24hr
in
rain mn
in
humidity
%
barometer
mb
20260510230857 88 140 9.0 12.0 0.00 0.00 0.00 71 1010.8
20260510230351 88 133 8.0 11.0 0.00 0.00 0.00 71 1010.9
20260510225849 88 140 10.0 15.0 0.00 0.00 0.00 70 1010.5
20260510225344 88 138 6.0 15.0 0.00 0.00 0.00 71 1010.7
20260510224841 89 136 13.0 19.0 0.00 0.00 0.00 70 1011.1
20260510224337 89 141 9.0 12.0 0.00 0.00 0.00 70 1011.0
20260510223834 89 130 8.0 11.0 0.00 0.00 0.00 70 1011.3
20260510223332 89 127 8.0 19.0 0.00 0.00 0.00 70 1011.4
20260510222829 89 143 13.0 16.0 0.00 0.00 0.00 70 1011.1
20260510222326 89 139 11.0 18.0 0.00 0.00 0.00 70 1011.5
20260510221826 89 140 7.0 13.0 0.00 0.00 0.00 70 1011.5
20260510221323 89 146 8.0 11.0 0.00 0.00 0.00 70 1011.7
20260510220819 90 143 10.0 14.0 0.00 0.00 0.00 68 1011.6
20260510220315 90 128 10.0 15.0 0.00 0.00 0.00 69 1011.6
20260510215812 90 142 9.0 14.0 0.00 0.00 0.00 69 1011.8
20260510215310 91 140 10.0 16.0 0.00 0.00 0.00 68 1011.8
20260510214807 91 159 10.0 12.0 0.00 0.00 0.00 69 1011.4
20260510214304 91 139 10.0 14.0 0.00 0.00 0.00 69 1011.6
20260510213800 91 144 10.0 14.0 0.00 0.00 0.00 68 1011.5
20260510213257 91 153 7.0 9.0 0.00 0.00 0.00 69 1011.4
20260510212754 90 141 11.0 21.0 0.00 0.00 0.00 69 1011.4
20260510212251 91 150 6.0 17.0 0.00 0.00 0.00 69 1011.4
20260510211748 90 141 10.0 11.0 0.00 0.00 0.00 71 1011.4
20260510211243 90 118 6.0 13.0 0.00 0.00 0.00 71 1011.4
20260510210739 90 131 5.0 9.0 0.00 0.00 0.00 71 1011.3
20260510210235 91 119 4.0 10.0 0.00 0.00 0.00 69 1011.3
20260510205734 92 101 6.0 11.0 0.00 0.00 0.00 68 1011.3
20260510205229 92 134 7.0 12.0 0.00 0.00 0.00 69 1011.3
20260510204726 91 138 9.0 11.0 0.00 0.00 0.00 69 1011.4
20260510204223 92 157 3.0 10.0 0.00 0.00 0.00 68 1011.3
20260510203720 92 129 5.0 13.0 0.00 0.00 0.00 69 1011.5
20260510203217 92 131 7.0 13.0 0.00 0.00 0.00 69 1011.3
20260510202712 92 145 5.0 8.0 0.00 0.00 0.00 67 1011.5
20260510202207 91 120 5.0 8.0 0.00 0.00 0.00 70 1011.6
20260510201705 91 51 4.0 11.0 0.00 0.00 0.00 68 1011.5
20260510201201 91 156 6.0 10.0 0.00 0.00 0.00 70 1011.7
20260510200658 91 138 5.0 11.0 0.00 0.00 0.00 71 1011.8
20260510200156 91 141 7.0 12.0 0.00 0.00 0.00 70 1011.5
20260510195653 91 77 3.0 7.0 0.00 0.00 0.00 71 1011.8
20260510195149 91 149 4.0 7.0 0.00 0.00 0.00 72 1011.8
20260510194648 92 91 4.0 13.0 0.00 0.00 0.00 70 1011.7
20260510194145 91 145 6.0 13.0 0.00 0.00 0.00 68 1011.8
20260510193640 92 108 4.0 7.0 0.00 0.00 0.00 67 1012.1
20260510193136 91 136 5.0 12.0 0.00 0.00 0.00 68 1012.2
20260510192631 91 23 4.0 9.0 0.00 0.00 0.00 70 1012.1
20260510192127 90 140 8.0 9.0 0.00 0.00 0.00 72 1012.3
20260510191624 90 67 4.0 7.0 0.00 0.00 0.00 72 1012.4
20260510191120 91 126 5.0 11.0 0.00 0.00 0.00 70 1012.3
20260510190618 91 134 5.0 5.0 0.00 0.00 0.00 70 1012.4
20260510190115 90 125 6.0 11.0 0.00 0.00 0.00 72 1012.3
20260510185611 89 140 6.0 9.0 0.00 0.00 0.00 73 1012.3
20260510185109 89 140 6.0 10.0 0.00 0.00 0.00 73 1012.6
20260510184606 89 127 5.0 12.0 0.00 0.00 0.00 74 1012.5
20260510184102 89 139 8.0 10.0 0.00 0.00 0.00 73 1012.5
20260510183557 89 145 7.0 10.0 0.00 0.00 0.00 72 1012.5
20260510183052 89 143 6.0 8.0 0.00 0.00 0.00 73 1012.6
20260510182549 88 161 4.0 6.0 0.00 0.00 0.00 76 1012.8
20260510182044 88 140 6.0 8.0 0.00 0.00 0.00 75 1012.8
20260510181542 88 143 4.0 4.0 0.00 0.00 0.00 77 1012.8
20260510181038 87 155 2.0 6.0 0.00 0.00 0.00 75 1012.9
20260510180535 88 149 4.0 5.0 0.00 0.00 0.00 75 1012.7
20260510180033 88 164 4.0 10.0 0.00 0.00 0.00 76 1013.0
20260510175527 87 282 1.0 6.0 0.00 0.00 0.00 77 1013.0
20260510175024 88 168 2.0 7.0 0.00 0.00 0.00 77 1013.1
20260510174522 88 151 4.0 8.0 0.00 0.00 0.00 78 1013.1
20260510174019 87 130 4.0 8.0 0.00 0.00 0.00 78 1013.2
20260510173514 87 142 4.0 11.0 0.00 0.00 0.00 78 1013.1
20260510173011 87 143 7.0 10.0 0.00 0.00 0.00 78 1013.1
20260510172507 86 121 4.0 10.0 0.00 0.00 0.00 79 1013.3
20260510172004 86 148 5.0 6.0 0.00 0.00 0.00 80 1013.3
20260510171455 85 147 6.0 8.0 0.00 0.00 0.00 81 1013.2
20260510170951 85 166 2.0 9.0 0.00 0.00 0.00 82 1013.3
20260510170449 84 168 4.0 5.0 0.00 0.00 0.00 82 1013.2
20260510165944 84 142 5.0 6.0 0.00 0.00 0.00 81 1013.2
20260510165441 84 64 0.0 4.0 0.00 0.00 0.00 82 1013.2
20260510164937 84 157 3.0 5.0 0.00 0.00 0.00 81 1013.0
20260510164435 84 137 1.0 5.0 0.00 0.00 0.00 81 1013.0
20260510163935 84 71 2.0 5.0 0.00 0.00 0.00 82 1012.9
20260510163431 84 152 2.0 7.0 0.00 0.00 0.00 82 1013.1
20260510162931 84 158 3.0 5.0 0.00 0.00 0.00 82 1013.0
20260510162423 84 160 4.0 7.0 0.00 0.00 0.00 82 1012.9
20260510161919 84 141 4.0 7.0 0.00 0.00 0.00 82 1013.0
20260510161414 84 138 7.0 8.0 0.00 0.00 0.00 80 1012.7
20260510160911 85 60 4.0 5.0 0.00 0.00 0.00 82 1012.6
20260510160409 84 159 0.0 3.0 0.00 0.00 0.00 83 1012.8
20260510155902 84 36 0.0 5.0 0.00 0.00 0.00 83 1012.8
20260510155359 83 41 2.0 6.0 0.00 0.00 0.00 86 1012.9
20260510154855 82 141 5.0 9.0 0.00 0.00 0.00 86 1013.1
20260510154351 82 154 2.0 4.0 0.00 0.00 0.00 85 1012.9
20260510153845 82 89 2.0 5.0 0.00 0.00 0.00 87 1013.0
20260510153342 82 137 5.0 6.0 0.00 0.00 0.00 86 1012.9
20260510152839 82 148 4.0 5.0 0.00 0.00 0.00 88 1012.9
20260510152336 81 82 2.0 4.0 0.00 0.00 0.00 89 1012.9
20260510151832 80 135 1.0 6.0 0.00 0.00 0.00 89 1012.9
20260510151330 80 158 3.0 5.0 0.00 0.00 0.00 89 1012.9
20260510150826 80 67 1.0 4.0 0.00 0.00 0.00 90 1013.1
20260510150321 80 136 3.0 5.0 0.00 0.00 0.00 91 1012.9
20260510145818 79 140 5.0 7.0 0.00 0.00 0.00 90 1013.2
20260510145314 79 142 3.0 5.0 0.00 0.00 0.00 91 1013.1
20260510144811 79 139 3.0 7.0 0.00 0.00 0.00 90 1013.0
20260510144308 79 133 6.0 8.0 0.00 0.00 0.00 90 1013.0
20260510143807 79 129 3.0 7.0 0.00 0.00 0.00 90 1012.9
20260510143304 79 137 4.0 5.0 0.00 0.00 0.00 91 1012.9
20260510142801 79 128 2.0 4.0 0.00 0.00 0.00 92 1012.9
20260510142257 79 134 6.0 9.0 0.00 0.00 0.00 92 1013.0
20260510141755 78 123 0.0 6.0 0.00 0.00 0.00 93 1012.9
20260510141252 78 116 2.0 5.0 0.00 0.00 0.00 94 1013.1
20260510140749 78 109 2.0 4.0 0.00 0.00 0.00 95 1013.1
20260510140244 77 47 3.0 4.0 0.00 0.00 0.00 95 1012.9
20260510135738 77 55 2.0 4.0 0.00 0.00 0.00 95 1012.8
20260510135234 77 37 2.0 4.0 0.00 0.00 0.00 96 1012.8
20260510134732 77 149 0.0 4.0 0.00 0.00 0.00 96 1012.8
20260510134229 77 79 3.0 3.0 0.00 0.00 0.00 97 1012.9
20260510133724 76 45 1.0 4.0 0.00 0.00 0.00 97 1012.9
20260510133220 76 24 2.0 4.0 0.00 0.00 0.00 97 1012.8
20260510132717 76 132 2.0 3.0 0.00 0.00 0.00 97 1012.9
20260510132214 76 107 1.0 4.0 0.00 0.00 0.00 97 1012.7
20260510131711 76 67 2.0 3.0 0.00 0.00 0.00 97 1012.8
20260510131210 76 21 1.0 2.0 0.00 0.00 0.00 98 1012.7
20260510130705 75 136 1.0 3.0 0.00 0.00 0.00 98 1012.6
20260510130202 75 161 1.0 3.0 0.00 0.00 0.00 98 1012.5
20260510125653 75 125 2.0 3.0 0.00 0.00 0.00 98 1012.6
20260510125149 75 75 1.0 2.0 0.00 0.00 0.00 98 1012.4
20260510124646 75 101 0.0 2.0 0.00 0.00 0.00 98 1012.5
20260510124143 75 84 1.0 3.0 0.00 0.00 0.00 98 1012.3
20260510123638 75 168 0.0 2.0 0.00 0.00 0.00 98 1012.3
20260510123135 75 125 0.0 2.0 0.00 0.00 0.00 98 1012.3
20260510122631 75 146 2.0 2.0 0.00 0.00 0.00 98 1012.2
20260510122127 75 175 0.0 2.0 0.00 0.00 0.00 98 1012.3
20260510121624 74 135 1.0 2.0 0.00 0.00 0.00 97 1012.1
20260510121121 74 40 2.0 2.0 0.00 0.00 0.00 97 1012.0
20260510120619 74 17 2.0 2.0 0.00 0.00 0.00 97 1011.8
20260510120114 74 33 1.0 2.0 0.00 0.00 0.00 97 1011.7
20260510115611 75 124 0.0 2.0 0.00 0.00 0.00 97 1011.6
20260510115108 75 288 0.0 1.0 0.00 0.00 0.00 97 1011.7
20260510114604 75 88 2.0 3.0 0.00 0.00 0.00 97 1011.5
20260510114100 75 65 2.0 2.0 0.00 0.00 0.00 97 1011.5
20260510113555 75 254 0.0 3.0 0.00 0.00 0.00 97 1011.5
20260510113054 75 48 1.0 2.0 0.00 0.00 0.00 97 1011.5
20260510112550 75 24 0.0 2.0 0.00 0.00 0.00 97 1011.6
20260510112046 75 57 0.0 2.0 0.00 0.00 0.00 97 1011.5
20260510111543 75 34 0.0 2.0 0.00 0.00 0.00 97 1011.5
20260510111039 75 67 0.0 0.0 0.00 0.00 0.00 97 1011.4
20260510110535 75 106 0.0 1.0 0.00 0.00 0.00 97 1011.4
20260510110032 75 116 0.0 2.0 0.00 0.00 0.00 96 1011.4
20260510105527 75 18 1.0 2.0 0.00 0.00 0.00 96 1011.3
20260510105022 75 84 0.0 1.0 0.00 0.00 0.00 96 1011.3
20260510104519 75 74 1.0 2.0 0.00 0.00 0.00 96 1011.3
20260510104015 75 330 0.0 1.0 0.00 0.00 0.00 96 1011.2
20260510103513 75 349 0.0 2.0 0.00 0.00 0.00 96 1011.3
20260510103009 75 311 1.0 2.0 0.00 0.00 0.00 96 1011.4
20260510102505 75 9 1.0 2.0 0.00 0.00 0.00 96 1011.2
20260510102001 75 24 2.0 2.0 0.00 0.00 0.00 96 1011.2
20260510101458 75 330 0.0 2.0 0.00 0.00 0.00 96 1011.4
20260510100957 75 7 0.0 2.0 0.00 0.00 0.00 96 1011.3
20260510100453 75 327 1.0 2.0 0.00 0.00 0.00 96 1011.4
20260510095949 75 25 2.0 3.0 0.00 0.00 0.00 96 1011.5
20260510095445 75 356 0.0 2.0 0.00 0.00 0.00 96 1011.2
20260510094944 75 115 0.0 2.0 0.00 0.00 0.00 96 1011.0
20260510094439 75 112 2.0 2.0 0.00 0.00 0.00 96 1011.2
20260510093935 75 75 0.0 2.0 0.00 0.00 0.00 96 1011.2
20260510093430 75 37 0.0 2.0 0.00 0.00 0.00 96 1011.2
20260510092927 75 100 0.0 2.0 0.00 0.00 0.00 96 1011.2
20260510092425 75 142 1.0 2.0 0.00 0.00 0.00 96 1011.0
20260510091924 75 250 0.0 0.0 0.00 0.00 0.00 96 1010.9
20260510091421 75 91 0.0 1.0 0.00 0.00 0.00 95 1011.2
20260510090918 75 280 1.0 2.0 0.00 0.00 0.00 95 1011.0
20260510090414 75 58 0.0 2.0 0.00 0.00 0.00 95 1011.0
20260510085910 75 115 0.0 2.0 0.00 0.00 0.00 95 1011.2
20260510085405 75 181 1.0 2.0 0.00 0.00 0.00 95 1011.0
20260510084901 75 175 0.0 2.0 0.00 0.00 0.00 95 1011.1
20260510084359 75 152 1.0 1.0 0.00 0.00 0.00 95 1011.3
20260510083855 75 147 1.0 3.0 0.00 0.00 0.00 95 1011.3
20260510083352 75 156 2.0 2.0 0.00 0.00 0.00 95 1011.4
20260510082847 75 211 1.0 3.0 0.00 0.00 0.00 95 1011.3
20260510082345 75 196 1.0 2.0 0.00 0.00 0.00 95 1011.4
20260510081838 75 140 0.0 1.0 0.00 0.00 0.00 95 1011.6
20260510081335 76 137 1.0 3.0 0.00 0.00 0.00 95 1011.8
20260510080831 76 139 2.0 4.0 0.00 0.00 0.00 95 1011.9
20260510080325 76 155 0.0 2.0 0.00 0.00 0.00 95 1012.0
20260510075823 76 157 0.0 3.0 0.00 0.00 0.00 95 1012.0
20260510075320 76 193 2.0 2.0 0.00 0.00 0.00 95 1012.2
20260510074816 76 117 3.0 4.0 0.00 0.00 0.00 95 1012.1
20260510074314 76 172 1.0 3.0 0.00 0.00 0.00 95 1012.1
20260510073809 76 131 4.0 5.0 0.00 0.00 0.00 95 1012.0
20260510073305 76 136 3.0 3.0 0.00 0.00 0.00 95 1012.1
20260510072801 76 142 3.0 4.0 0.00 0.00 0.00 94 1012.0
20260510072258 76 143 3.0 3.0 0.00 0.00 0.00 94 1012.0
20260510071754 76 146 4.0 4.0 0.00 0.00 0.00 94 1012.2
20260510071251 76 141 2.0 4.0 0.00 0.00 0.00 94 1012.1
20260510070750 76 127 5.0 6.0 0.00 0.00 0.00 94 1012.2
20260510070247 76 133 4.0 5.0 0.00 0.00 0.00 94 1012.2
20260510065746 76 108 1.0 6.0 0.00 0.00 0.00 94 1012.2
20260510065243 76 143 2.0 6.0 0.00 0.00 0.00 94 1012.2
20260510064739 76 128 4.0 6.0 0.00 0.00 0.00 94 1011.9
20260510064238 76 130 6.0 7.0 0.00 0.00 0.00 93 1012.1
20260510063733 76 133 3.0 6.0 0.00 0.00 0.00 93 1012.1
20260510063230 76 128 3.0 6.0 0.00 0.00 0.00 93 1012.1
20260510062727 76 139 4.0 5.0 0.00 0.00 0.00 93 1011.9
20260510062223 76 136 4.0 6.0 0.00 0.00 0.00 93 1012.2
20260510061718 76 160 3.0 5.0 0.00 0.00 0.00 93 1012.1
20260510061216 76 169 3.0 5.0 0.00 0.00 0.00 93 1012.0
20260510060712 76 144 3.0 4.0 0.00 0.00 0.00 92 1012.1
20260510060208 77 140 3.0 4.0 0.00 0.00 0.00 92 1012.1
20260510055705 77 163 2.0 4.0 0.00 0.00 0.00 92 1012.1
20260510055203 77 173 2.0 4.0 0.00 0.00 0.00 92 1012.0
20260510054658 77 163 2.0 6.0 0.00 0.00 0.00 92 1012.3
20260510054154 77 140 2.0 3.0 0.00 0.00 0.00 92 1012.1
20260510053653 77 175 4.0 6.0 0.00 0.00 0.00 92 1012.2
20260510053150 77 167 1.0 4.0 0.00 0.00 0.00 92 1012.0
20260510052646 77 161 2.0 3.0 0.00 0.00 0.00 92 1012.3
20260510052142 77 139 4.0 4.0 0.00 0.00 0.00 92 1012.2
20260510051638 77 119 4.0 4.0 0.00 0.00 0.00 92 1012.1
20260510051135 77 146 3.0 4.0 0.00 0.00 0.00 92 1012.0
20260510050632 77 146 2.0 3.0 0.00 0.00 0.00 92 1012.1
20260510050129 77 142 2.0 3.0 0.00 0.00 0.00 91 1012.2
20260510045626 77 135 2.0 2.0 0.00 1.72 1.72 91 1012.3
20260510045122 77 158 2.0 4.0 0.00 1.72 1.72 91 1012.3
20260510044619 77 148 2.0 3.0 0.00 1.72 1.72 91 1012.3
20260510044116 77 120 2.0 2.0 0.00 1.72 1.72 90 1012.3
20260510043612 77 74 0.0 2.0 0.00 1.72 1.72 90 1012.3
20260510043108 77 130 1.0 3.0 0.00 1.72 1.72 89 1012.4
20260510042601 77 155 2.0 5.0 0.00 1.72 1.72 89 1012.5
20260510042057 78 127 0.0 2.0 0.00 1.72 1.72 89 1012.6
20260510041554 78 123 2.0 4.0 0.00 1.72 1.72 89 1012.4
20260510041051 78 145 2.0 3.0 0.00 1.72 1.72 88 1012.4
20260510040548 78 147 2.0 5.0 0.00 1.72 1.72 88 1012.3
20260510040044 78 204 0.0 3.0 0.00 1.72 1.72 87 1012.4
20260510035540 78 149 4.0 6.0 0.00 1.72 1.72 87 1012.2
20260510035040 78 131 5.0 8.0 0.00 1.72 1.72 87 1012.2
20260510034539 78 129 7.0 7.0 0.00 1.72 1.72 87 1012.1
20260510034035 78 140 4.0 5.0 0.00 1.72 1.72 87 1012.1
20260510033530 78 130 4.0 6.0 0.00 1.72 1.72 86 1011.8
20260510033029 78 128 5.0 6.0 0.00 1.72 1.72 86 1011.9
20260510032525 78 139 3.0 6.0 0.00 1.72 1.72 86 1012.0
20260510032020 78 129 3.0 9.0 0.00 1.72 1.72 85 1011.8
20260510031516 78 135 5.0 7.0 0.00 1.72 1.72 85 1011.6
20260510031012 78 138 5.0 8.0 0.00 1.72 1.72 84 1011.6
20260510030507 79 135 9.0 10.0 0.00 1.72 1.72 84 1011.6
20260510030005 79 135 4.0 8.0 0.00 1.72 1.72 84 1011.4
20260510025502 79 132 4.0 5.0 0.00 1.72 1.72 83 1011.2
20260510025000 79 124 6.0 6.0 0.00 1.72 1.72 83 1011.2
20260510024456 79 95 3.0 5.0 0.00 1.72 1.72 82 1011.1
20260510023952 79 150 7.0 8.0 0.00 1.72 1.72 81 1011.1
20260510023449 79 136 4.0 11.0 0.00 1.72 1.72 81 1011.1
20260510022946 80 151 7.0 8.0 0.00 1.72 1.72 80 1011.1
20260510022445 80 106 3.0 5.0 0.00 1.72 1.72 79 1011.1
20260510021944 80 127 7.0 8.0 0.00 1.72 1.72 78 1011.0
20260510021442 80 134 3.0 6.0 0.00 1.72 1.72 78 1010.8
20260510020938 80 103 3.0 6.0 0.00 1.72 1.72 77 1010.8
20260510020432 80 139 3.0 9.0 0.00 1.72 1.72 77 1010.8
20260510015928 80 128 4.0 11.0 0.00 1.72 1.72 76 1010.3
20260510015425 80 132 6.0 8.0 0.00 1.72 1.72 76 1010.5
20260510014919 81 136 7.0 11.0 0.00 1.72 1.72 76 1010.5
20260510014417 81 134 6.0 8.0 0.00 1.72 1.72 76 1010.3
20260510013914 81 129 4.0 10.0 0.00 1.72 1.72 76 1010.2
20260510013408 81 147 2.0 6.0 0.00 1.72 1.72 75 1010.2
20260510012904 81 146 4.0 9.0 0.00 1.72 1.72 75 1010.0
20260510012359 81 140 4.0 8.0 0.00 1.72 1.72 75 1010.1
20260510011854 81 140 7.0 13.0 0.00 1.72 1.72 75 1010.1
20260510011349 81 143 7.0 11.0 0.00 1.72 1.72 75 1009.9
20260510010846 81 138 3.0 12.0 0.00 1.72 1.72 74 1009.9
20260510010343 82 89 4.0 6.0 0.00 1.72 1.72 74 1009.9
20260510005840 82 145 8.0 10.0 0.00 1.72 1.72 74 1009.7
20260510005336 82 132 4.0 8.0 0.00 1.72 1.72 74 1009.7
20260510004834 82 91 4.0 11.0 0.00 1.72 1.72 73 1009.6
20260510004331 82 135 5.0 11.0 0.00 1.72 1.72 73 1009.8
20260510003829 82 138 4.0 14.0 0.00 1.72 1.72 73 1009.6
20260510003326 82 145 5.0 11.0 0.00 1.72 1.72 73 1009.6
20260510002824 82 310 3.0 13.0 0.00 1.72 1.72 73 1009.4
20260510002322 83 124 6.0 11.0 0.00 1.72 1.72 73 1009.5
20260510001818 83 105 5.0 11.0 0.00 1.72 1.72 73 1009.5
20260510001317 83 124 4.0 10.0 0.00 1.72 1.72 72 1009.5
20260510000812 83 144 8.0 10.0 0.00 1.72 1.72 73 1009.5
20260510000311 83 58 4.0 9.0 0.00 1.72 1.72 71 1009.3
20260509235807 83 131 5.0 6.0 0.00 1.72 1.72 72 1009.4
20260509235258 83 122 3.0 7.0 0.00 1.72 1.72 72 1009.4
20260509234754 83 95 2.0 6.0 0.00 1.72 1.72 73 1009.4
20260509234251 84 131 8.0 11.0 0.00 1.72 1.72 72 1009.3
20260509233749 84 114 6.0 10.0 0.00 1.72 1.72 71 1009.3
20260509233246 84 75 6.0 9.0 0.00 1.72 1.72 70 1009.3
20260509232742 84 126 5.0 11.0 0.00 1.72 1.72 69 1009.4
20260509232240 84 96 2.0 6.0 0.00 1.72 1.72 70 1009.2
20260509231736 84 99 4.0 8.0 0.00 1.72 1.72 70 1009.3